Regional Weather Roundup
Issued by NWS Green Bay, WI

Home | Current Version | Previous Version | Text Only | Print | Product List | Glossary On
Versions: 1 2 3 4 5 6 7 8 9 10 11 12 13 14 15 16 17 18 19 20 21 22 23 24 25 26 27 28 29 30 31 32 33 34 35 36 37 38 39 40 41 42 43 44 45 46 47 48 49 50
000
ASUS43 KGRB 260510
RWRGRB

NORTH-CENTRAL AND NORTHEAST WISCONSIN REGIONAL WEATHER ROUNDUP
NATIONAL WEATHER SERVICE GREEN BAY WI
1100 PM CST THU DEC 25 2014

WIZ005-009-010>012-018-019-260600-
NORTH CENTRAL WISCONSIN

CITY           SKY/WX    TMP DP  RH WIND       PRES   REMARKS
IRONWOOD       CLOUDY    30  28  93 CALM      29.86S
MANITOWISH WTR LGT SNOW  28  28 100 CALM      29.88R
ARBOR VITAE    LGT SNOW  32  31  95 CALM      29.88R
EAGLE RIVER    LGT SNOW  29  29 100 CALM      29.88R
LAND O LAKES   LGT SNOW  30  29  99 CALM      29.89S
RHINELANDER    CLOUDY    29  28  96 CALM      29.89R FOG
PHILLIPS       CLOUDY    29  29  99 CALM      29.88R FOG
ANTIGO         MOCLDY    25  25 100 CALM      29.88F FOG
TOMAHAWK       CLOUDY    29  28  95 CALM      29.89S FOG
MERRILL        MOCLDY    26  26 100 NE3       29.89S FOG
$$

WIZ013-073-260600-
NORTHEAST WISCONSIN

CITY           SKY/WX    TMP DP  RH WIND       PRES   REMARKS
IRON MOUNTAIN  CLOUDY    31  30  96 CALM      29.90R
MARINETTE      MOCLDY    30  27  86 CALM      29.93S
OCONTO           N/A     28  28 100 CALM      29.94S
$$

WIZ017-030-035>037-045-260600-
CENTRAL WISCONSIN

CITY           SKY/WX    TMP DP  RH WIND       PRES   REMARKS
MEDFORD        CLOUDY    28  26  94 E3        29.86S FOG
WAUSAU         PTCLDY    28  27  96 SE3       29.88S
MOSINEE        PTCLDY    30  30 100 E5        29.89S
MARSHFIELD     PTCLDY    29  26  89 E5        29.88R
WISC RAPIDS    PTCLDY    28  24  85 CALM      29.90S FOG
STEVENS POINT  PTCLDY    26  26  98 CALM      29.90S FOG
WAUPACA        PTCLDY    29  28  96 CALM      29.92S FOG
SHAWANO        PTCLDY    31  30  95 CALM      29.93S FOG
CLINTONVILLE     N/A     28  28 100 CALM      29.92S FOG
$$

WIZ038-039-048-051-260600-
FOX VALLEY

CITY           SKY/WX    TMP DP  RH WIND       PRES   REMARKS
NWS GREEN BAY  PTCLDY    31  29  92 CALM      29.94R FOG
APPLETON       PTCLDY    30  30 100 SE5       29.92F
OSHKOSH        MOCLDY    36  32  85 S9        29.92S
FOND DU LAC    CLOUDY    39  33  79 S16       29.93R
$$

WIZ022-050-052-260600-
EAST CENTRAL WISCONSIN

CITY           SKY/WX    TMP DP  RH WIND       PRES   REMARKS
STURGEON BAY   MOCLDY    34  30  86 S6        29.96S
MANITOWOC      PTCLDY    33  31  92 CALM      29.96R
SHEBOYGAN      PTCLDY    37  32  82 SW8       29.95R
$$

LMZ563-521-522-541>543-260600-
LAKESHORE

STATION/POSITION TIME  TEMP    WIND        PRES    VSBY  WAVE
                       AIR SEA DIR/SP/G                  HT/PER
                 (UTC) (F)     (DEG/KT/KT) (MB)    (MI)  (FT/S)
SHEBOYGAN LKSHOR 0500   39 37  210/ 13/ 15 1015.1R
KEWAUNEE LKSHORE 0500   35      CALM  /  3 1013.4R
ALGOMA MARINA    0500             CALM       N/A
NORTHPORT PIER   0500   32      CALM  /  1 1014.2S
SISTER BAY LKSHO 0400             CALM       N/A
CHAMBERS ISLAND  0500   34     180/  2/  3 1014.6R
MENOMINEE LKSHOR 0500   33     170/  3/  4 1014.5F
$$


USA.gov is the U.S. government's official web portal to all federal, state and local government web resources and services.